Tracking 35237 objects as of 4-Sep-2026
HD Live streaming from Space Station
objects crossing your sky now

COSMOS 2421 DEB


COSMOS 2421 DEB is no longer on orbit


NORAD ID: 33127
Int'l Code: 2006-026MK
Launch date: June 25, 2006
Source: Commonwealth of Independent States (former USSR) (CIS)
Launch site: TYURATAM MISSILE AND SPACE COMPLEX (TTMTR)
Decay date: 2008-09-11

Note: This is SATELLITE DEBRIS
Your satellite tracking list
Your tracking list is empty




NASA's NSSDC Master Catalog

Two Line Element Set (TLE):
1 33127U 06026MK  08255.08397962  .06053166  68421-5  47858-2 0  9991
2 33127 065.3906 152.5331 0032363 248.1152 112.2333 16.12938861 13821
Source of the keplerian elements: AFSPC